User: anonymous   Login
Location: D�derode
(51.8092°N, 10.1065°E)
Time: 07:40:12
(UTC+00:00)
Language:

Feng Yun 1-1 Rocket - Orbit

View from above orbital plane
View from above orbital plane
View from above satellite
View from above satellite

Ground track
Ground track

The orbit data is extracted from the following two-line orbital elements,

1 19468U 88080B   21058.84125843 -.00000263  00000-0 -13481-3 0  9996
2 19468  99.2067  81.3120 0070446 255.4612 278.1934 14.03546265662682
Epoch (UTC): 27 February 2021 20:11:24
Eccentricity: 0.0070446
inclination: 99.2067°
perigee height: 830 km
apogee height: 932 km
right ascension of ascending node: 81.3120°
argument of perigee: 255.4612°
revolutions per day: 14.03546265
mean anomaly at epoch: 278.1934°
orbit number at epoch: 66268

The dashed part of the orbit path shows where the satellite is in the earth's shadow,  

DLR